RYR8LC ESGG-EDDK

Flight info

Callsign RYR8LC
Flight time 1h 8m
Altitude 39000
Route VADIN3J VADIN DCT LAPMA DCT RAXLU DCT KEGAB DCT ROBEG DCT PIROT DCT LARBU DCT PODER Z189 RUNER T858 KOPAG KOPAG1F
Aircraft B738/M-SDE2E3FGHIRWXY/LB1

Departure

Time 2026-05-04 09:46
Airport Göteborg Landvetter Airport (ESGG)

Arrival

Time 2026-05-04 10:54
Airport Cologne Bonn Airport (EDDK)
Time Latitude Longitude Altitude Speed Heading
2026-05-04 09:18 57.66729 12.29267 507 ft 0 kts 114°
2026-05-04 09:37 57.66744 12.29147 507 ft 4 kts 42°
2026-05-04 09:37 57.66722 12.29119 507 ft 4 kts 27°
2026-05-04 09:38 57.66702 12.29101 506 ft 1 kts 25°
2026-05-04 09:38 57.66701 12.29101 506 ft 0 kts 25°
2026-05-04 09:40 57.66701 12.29100 506 ft 0 kts 25°
2026-05-04 09:42 57.66992 12.29139 509 ft 20 kts 26°
2026-05-04 09:43 57.67125 12.29262 510 ft 23 kts 26°
2026-05-04 09:43 57.67276 12.29399 512 ft 24 kts 26°
2026-05-04 09:43 57.67373 12.29481 513 ft 11 kts
2026-05-04 09:43 57.67430 12.29397 513 ft 11 kts 297°
2026-05-04 09:44 57.67460 12.29268 513 ft 11 kts 283°
2026-05-04 09:44 57.67454 12.29125 511 ft 13 kts 255°
2026-05-04 09:44 57.67393 12.28991 511 ft 15 kts 211°
2026-05-04 09:46 57.60594 12.23302 3602 ft 220 kts 189°
2026-05-04 09:46 57.59024 12.23099 4161 ft 229 kts 189°
2026-05-04 09:46 57.57434 12.22871 4724 ft 239 kts 189°
2026-05-04 09:47 57.55714 12.22606 5273 ft 256 kts 189°
2026-05-04 09:47 57.53883 12.22271 5810 ft 269 kts 191°
2026-05-04 09:49 57.43505 12.12451 9311 ft 263 kts 226°
2026-05-04 09:49 57.42136 12.10171 9851 ft 266 kts 226°
2026-05-04 09:49 57.40750 12.07881 10376 ft 267 kts 225°
2026-05-04 09:51 57.26372 11.84547 15648 ft 332 kts 225°
2026-05-04 09:51 57.22817 11.78842 16741 ft 342 kts 225°
2026-05-04 09:51 57.19223 11.73087 17843 ft 341 kts 225°
2026-05-04 09:51 57.15649 11.67388 18876 ft 339 kts 223°
2026-05-04 09:52 57.11512 11.62974 19880 ft 354 kts 205°
2026-05-04 09:52 57.06740 11.60168 20985 ft 365 kts 202°
2026-05-04 09:52 57.01816 11.57352 22113 ft 374 kts 202°
2026-05-04 09:52 56.96812 11.54466 23273 ft 380 kts 202°
2026-05-04 09:53 56.91739 11.51529 24285 ft 384 kts 202°
2026-05-04 09:53 56.86632 11.48573 25297 ft 386 kts 202°
2026-05-04 09:53 56.81481 11.45597 26351 ft 388 kts 202°
2026-05-04 09:53 56.76378 11.42658 27435 ft 390 kts 202°
2026-05-04 09:54 56.71144 11.39649 28278 ft 397 kts 202°
2026-05-04 09:54 56.65828 11.36602 29063 ft 404 kts 202°
2026-05-04 09:54 56.60414 11.33495 29880 ft 409 kts 202°
2026-05-04 09:54 56.54967 11.30282 30577 ft 413 kts 202°
2026-05-04 09:55 56.49483 11.27040 31271 ft 416 kts 202°
2026-05-04 09:55 56.47698 11.25988 31500 ft 416 kts 202°
2026-05-04 09:55 56.43941 11.23781 31987 ft 418 kts 202°
2026-05-04 09:55 56.38472 11.20580 32712 ft 419 kts 202°
2026-05-04 09:56 56.32899 11.17332 33442 ft 419 kts 202°
2026-05-04 09:56 56.27361 11.14114 34147 ft 418 kts 202°
2026-05-04 09:56 56.21829 11.10908 34786 ft 417 kts 202°
2026-05-04 09:56 56.16296 11.07711 35344 ft 417 kts 202°
2026-05-04 09:57 56.10730 11.04502 35762 ft 421 kts 202°
2026-05-04 09:57 56.05135 11.01287 36186 ft 424 kts 202°
2026-05-04 09:57 55.99488 10.98054 36614 ft 427 kts 202°
2026-05-04 09:57 55.93884 10.94856 37044 ft 428 kts 202°
2026-05-04 09:58 55.88198 10.91621 37483 ft 430 kts 202°
2026-05-04 09:58 55.82493 10.88385 37927 ft 430 kts 202°
2026-05-04 09:58 55.76740 10.85129 37954 ft 438 kts 201°
2026-05-04 10:00 55.35724 10.62232 37953 ft 427 kts 201°
2026-05-04 10:00 55.30069 10.59110 37964 ft 426 kts 201°
2026-05-04 10:04 54.59900 10.21585 37982 ft 441 kts 199°
2026-05-04 10:04 54.53985 10.18716 37986 ft 441 kts 199°
2026-05-04 10:05 54.48082 10.15841 37994 ft 441 kts 199°
2026-05-04 10:05 54.42183 10.12967 37987 ft 440 kts 199°
2026-05-04 10:06 54.36296 10.10106 37989 ft 439 kts 199°
2026-05-04 10:06 54.30464 10.07279 37989 ft 438 kts 199°
2026-05-04 10:08 54.10032 9.97444 37991 ft 434 kts 199°
2026-05-04 10:08 54.04214 9.94662 37986 ft 433 kts 199°
2026-05-04 10:09 53.98408 9.91894 37993 ft 433 kts 199°
2026-05-04 10:09 53.92602 9.89133 37990 ft 432 kts 199°
2026-05-04 10:10 53.86846 9.86404 37986 ft 432 kts 199°
2026-05-04 10:10 53.81040 9.83660 37995 ft 432 kts 199°
2026-05-04 10:11 53.75230 9.80921 37993 ft 432 kts 199°
2026-05-04 10:11 53.69457 9.78208 37997 ft 432 kts 199°
2026-05-04 10:12 53.63648 9.75485 37990 ft 433 kts 199°
2026-05-04 10:12 53.57839 9.72770 37993 ft 433 kts 199°
2026-05-04 10:13 53.52038 9.70067 37994 ft 433 kts 199°
2026-05-04 10:13 53.46258 9.67382 37992 ft 433 kts 199°
2026-05-04 10:14 53.40450 9.64690 37998 ft 433 kts 199°
2026-05-04 10:16 53.17184 9.53986 37993 ft 433 kts 199°
2026-05-04 10:16 53.11405 9.51345 37994 ft 433 kts 199°
2026-05-04 10:17 53.05594 9.48698 37993 ft 432 kts 199°
2026-05-04 10:19 52.82208 9.40117 37988 ft 432 kts 191°
2026-05-04 10:19 52.76253 9.38847 37988 ft 430 kts 191°
2026-05-04 10:20 52.70318 9.37526 37993 ft 429 kts 192°
2026-05-04 10:20 52.64426 9.36191 37989 ft 428 kts 192°
2026-05-04 10:21 52.58516 9.34850 37986 ft 427 kts 192°
2026-05-04 10:21 52.52631 9.33521 37991 ft 426 kts 192°
2026-05-04 10:22 52.43865 9.31548 37989 ft 424 kts 192°
2026-05-04 10:23 52.38022 9.30237 37994 ft 423 kts 192°
2026-05-04 10:25 52.14659 9.25358 37987 ft 424 kts 190°
2026-05-04 10:25 52.08858 9.24334 37970 ft 408 kts 190°
2026-05-04 10:26 52.03261 9.23245 37976 ft 402 kts 193°
2026-05-04 10:26 51.97769 9.21736 37984 ft 399 kts 193°
2026-05-04 10:27 51.92326 9.20254 37985 ft 398 kts 197°
2026-05-04 10:27 51.89737 9.18782 37986 ft 393 kts 209°
2026-05-04 10:27 51.87397 9.16522 37987 ft 390 kts 218°
2026-05-04 10:27 51.85386 9.13615 37989 ft 388 kts 229°
2026-05-04 10:28 51.83616 9.10325 38005 ft 387 kts 230°
2026-05-04 10:28 51.80117 9.03690 37992 ft 388 kts 230°
2026-05-04 10:29 51.76585 8.97069 37984 ft 388 kts 229°
2026-05-04 10:29 51.73053 8.90520 37720 ft 392 kts 229°
2026-05-04 10:29 51.71255 8.87202 37164 ft 390 kts 229°
2026-05-04 10:30 51.69475 8.83920 36660 ft 388 kts 229°
2026-05-04 10:30 51.67694 8.80640 36165 ft 386 kts 229°
2026-05-04 10:30 51.65930 8.77393 35681 ft 384 kts 229°
2026-05-04 10:30 51.64165 8.74153 35208 ft 382 kts 229°
2026-05-04 10:31 51.62384 8.70977 34733 ft 381 kts 224°
2026-05-04 10:31 51.60412 8.68224 34280 ft 379 kts 218°
2026-05-04 10:32 51.46716 8.55753 31128 ft 378 kts 211°
2026-05-04 10:33 51.44422 8.53704 30715 ft 374 kts 211°
2026-05-04 10:33 51.42154 8.51678 30308 ft 371 kts 211°
2026-05-04 10:33 51.39909 8.49672 29873 ft 368 kts 211°
2026-05-04 10:33 51.37681 8.47684 29445 ft 364 kts 211°
2026-05-04 10:34 51.35478 8.45719 29051 ft 359 kts 211°
2026-05-04 10:34 51.33307 8.43787 28656 ft 355 kts 211°
2026-05-04 10:34 51.31158 8.41877 28245 ft 352 kts 211°
2026-05-04 10:34 51.29135 8.39738 27867 ft 346 kts 220°
2026-05-04 10:35 51.27398 8.37105 27451 ft 343 kts 227°
2026-05-04 10:35 51.25932 8.34149 26981 ft 343 kts 237°
2026-05-04 10:35 51.24704 8.30880 26587 ft 341 kts 238°
2026-05-04 10:35 51.23525 8.27604 26202 ft 339 kts 239°
2026-05-04 10:36 51.22753 8.25445 25946 ft 337 kts 239°
2026-05-04 10:36 51.21212 8.21152 25462 ft 335 kts 238°
2026-05-04 10:36 51.20053 8.17944 25086 ft 333 kts 238°
2026-05-04 10:36 51.19269 8.15784 24850 ft 331 kts 238°
2026-05-04 10:37 51.18126 8.12647 24479 ft 330 kts 238°
2026-05-04 10:37 51.16974 8.09493 24118 ft 329 kts 238°
2026-05-04 10:37 51.15823 8.06350 23764 ft 327 kts 238°
2026-05-04 10:37 51.14677 8.03226 23378 ft 326 kts 238°
2026-05-04 10:39 51.07955 7.84976 21169 ft 312 kts 237°
2026-05-04 10:39 51.06917 7.81967 20805 ft 311 kts 246°
2026-05-04 10:39 51.06438 7.78591 20427 ft 315 kts 263°
2026-05-04 10:40 51.06405 7.75102 19989 ft 315 kts 266°
2026-05-04 10:40 51.06439 7.71619 19406 ft 314 kts 268°
2026-05-04 10:40 51.06522 7.68153 18874 ft 313 kts 268°
2026-05-04 10:40 51.06620 7.64725 18342 ft 311 kts 268°
2026-05-04 10:41 51.06718 7.61300 17731 ft 309 kts 269°
2026-05-04 10:41 51.06813 7.57932 17134 ft 308 kts 268°
2026-05-04 10:41 51.06904 7.54526 16539 ft 306 kts 268°
2026-05-04 10:41 51.06993 7.51153 15956 ft 305 kts 268°
2026-05-04 10:42 51.07078 7.47797 15385 ft 303 kts 268°
2026-05-04 10:42 51.07162 7.44452 14825 ft 301 kts 268°
2026-05-04 10:42 51.07243 7.41139 14274 ft 299 kts 268°
2026-05-04 10:42 51.07323 7.37841 13726 ft 298 kts 268°
2026-05-04 10:43 51.07402 7.34555 13107 ft 296 kts 268°
2026-05-04 10:44 51.15021 7.15425 9069 ft 299 kts 307°
2026-05-04 10:45 51.16395 7.12959 8480 ft 297 kts 307°
2026-05-04 10:45 51.17750 7.10501 7906 ft 293 kts 304°
2026-05-04 10:45 51.18572 7.07701 7391 ft 276 kts 273°
2026-05-04 10:45 51.18346 7.04822 6946 ft 255 kts 245°
2026-05-04 10:46 51.17480 7.02444 6500 ft 245 kts 234°
2026-05-04 10:46 51.16444 7.00297 6063 ft 242 kts 219°
2026-05-04 10:46 51.15014 6.99093 5992 ft 225 kts 204°
2026-05-04 10:46 51.13614 6.98129 5880 ft 212 kts 205°
2026-05-04 10:47 51.12292 6.97191 5694 ft 205 kts 205°
2026-05-04 10:47 51.10989 6.96242 5238 ft 212 kts 206°
2026-05-04 10:47 51.09644 6.95244 4901 ft 210 kts 206°
2026-05-04 10:47 51.08349 6.94276 4697 ft 203 kts 206°
2026-05-04 10:49 50.99716 6.96009 3328 ft 209 kts 141°
2026-05-04 10:49 50.98646 6.97551 3037 ft 204 kts 141°
2026-05-04 10:50 50.97641 6.99012 2780 ft 197 kts 141°
2026-05-04 10:51 50.91675 7.07653 1241 ft 154 kts 141°
2026-05-04 10:52 50.90918 7.08755 1043 ft 142 kts 140°
2026-05-04 10:52 50.90198 7.09793 859 ft 139 kts 139°
2026-05-04 10:52 50.89477 7.10839 675 ft 141 kts 139°
2026-05-04 10:54 50.86897 7.14238 255 ft 20 kts 282°
2026-05-04 10:54 50.86967 7.14008 249 ft 28 kts 316°